Flag for U.S.A. Weather past 2 weeks in New Bedford, Massachusetts, U.S.A.

Now
77 °F

Sunny.


Feels Like: 79 °F
Forecast: 59 / 79 °F
Wind: 12 mph from Southwest

Location: New Bedford Regional Airport

Current Time: Jul 31, 2014 at 11:38:00 AM

Latest Report: Jul 31, 2014 at 10:53 AM


Visibility: 10 mi

Pressure: 30.11 "Hg

Humidity: 58%

Dew point: 61 °F

Location of New BedfordLocation

Historic Weather in New Bedford — Graph

°F

New Bedford temperature yesterday

Maximum temperature yesterday: 78 °F (at 2:53 PM)
Minimum temperature yesterday: 56 °F (at 3:53 AM)
Average temperature yesterday: 67 °F

Past Weeks' High & Low Weather Summary

 TemperatureHumidityPressure
High85 °F (Jul 22, 12:53 PM)100% (Jul 17, 12:53 AM)30.27 "Hg (Jul 17, 12:53 AM)
Low56 °F (Jul 30, 3:53 AM)39% (Jul 25, 1:53 PM)29.49 "Hg (Jul 28, 4:53 PM)
Average70 °F78%29.95 "Hg
* Reported Jul 16 9:53 AM — Jul 31 9:53 AM, New Bedford, Weather by CustomWeather, © 2014

Note: Actual official high and low records may vary slightly from our data, if they occured in-between our weather recording intervals... More about our weather records

Advertising

New Bedford weather history for previous 24 hours

 ConditionsComfort  
Time TempWeatherWind HumidityBarometerVisibility
9:53 AM
Jul 31
75 °FSunny.8 mph66%30.11 "Hg10 mi
8:53 AM72 °FSunny.6 mph76%30.10 "Hg10 mi
7:53 AM67 °FSunny.3 mph90%30.11 "Hg10 mi
6:53 AM59 °FSunny.No wind93%30.10 "Hg10 mi
5:53 AM56 °FClear.No wind97%30.09 "Hg9 mi
4:53 AM56 °FClear.No wind97%30.07 "Hg8 mi
3:53 AM56 °FClear.No wind97%30.06 "Hg8 mi
2:53 AM58 °FClear.No wind93%30.06 "Hg10 mi
1:53 AM57 °FClear.No wind96%30.06 "Hg10 mi
12:53 AM59 °FClear.No wind93%30.05 "Hg10 mi
11:53 PM
Jul 30
60 °FClear.No wind90%30.05 "Hg10 mi
10:53 PM60 °FClear.No wind90%30.05 "Hg10 mi
9:53 PM64 °FClear.3 mph81%30.04 "Hg10 mi
8:53 PM66 °FSunny.6 mph75%30.03 "Hg10 mi
7:53 PM68 °FSunny.6 mph68%30.02 "Hg10 mi
6:53 PM72 °FSunny.8 mph53%30.01 "Hg10 mi
5:53 PM75 °FSunny.12 mph45%29.99 "Hg10 mi
4:53 PM76 °FSunny.10 mph50%29.99 "Hg10 mi
3:53 PM78 °FSunny.14 mph46%29.98 "Hg10 mi
2:53 PM78 °FScattered clouds.8 mph43%29.98 "Hg10 mi
1:53 PM77 °FScattered clouds.5 mph39%29.98 "Hg10 mi
12:53 PM77 °FPassing clouds.8 mph40%29.98 "Hg10 mi
11:53 AM77 °FPassing clouds.9 mph44%30.00 "Hg10 mi
Weather by CustomWeather, © 2014

See weather overviewHow to use our weather pages